Location: Bannatyne
(13.0833°N, 59.5333°W)
Time: 17:18:13
(UTC+00:00)

Vanguard 3 - Pass Details

Date: 01 February 2020
Orbit: 508 x 3263 km, 33.3° (Epoch: 22 February)

Event Time Altitude Azimuth Distance (km) Brightness Sun altitude
Rises 17:46:29 0° 247° (WSW) 4,978 11.7 51.8°
Reaches altitude 10° 17:49:15 10° 249° (WSW) 4,289 11.5 51.4°
Maximum altitude 18:02:04 70° 332° (NNW) 2,815 10.6 49.3°
Drops below altitude 10° 18:21:40 10° 54° (NE) 6,196 11.3 45.9°
Sets 18:26:40 0° 57° (ENE) 7,210 11.6 45.0°
